Amateur Radio Satellites - All Passes

Search period start: 23 May 2013 16:12
Search period end: 24 May 2013 16:12
Location: Cherry Springs State Park, 41.6616°N, 77.8240°W

Satellite Date Start Highest point End Downlink Frequencies (MHz)
Time Altitude Azimuth
TMSAT-1 23 May 16:15:20 16:20:38 84° 75° (ENE) 16:25:58 436.925 FM
PCSat 23 May 16:20:45 16:25:58 45° 54° (NE) 16:31:09 145.825 MHz
Gurwin Techsat 1B 23 May 16:38:06 16:43:05 41° 262° (W) 16:48:06 435.225 FM
Uosat F 23 May 16:50:11 16:54:13 24° 265° (W) 16:58:15 435.120 FM
Sapphire 23 May 16:53:39 16:59:07 78° 60° (ENE) 17:04:32 437.095 MHz 1200 baud AX-25 AFSK
RS-15 23 May 16:55:14 17:07:16 77° 118° (ESE) 17:18:47 29.354 - 29.394 USB, Beacon 29.352 USB
SO-50 23 May 17:18:01 17:22:23 44° 51° (NE) 17:26:40 436.795 FM
TMSAT-1 23 May 17:59:23 18:01:13 12° 272° (W) 18:03:04 436.925 FM
AO-7 23 May 18:01:01 18:08:56 48° 259° (W) 18:16:56 29.400 - 29.500 MHz
PCSat 23 May 18:04:40 18:09:08 27° 252° (WSW) 18:13:35 145.825 MHz
STRAND 1 23 May 18:18:31 18:20:44 13° 89° (E) 18:22:56 ?
UOSAT-12 23 May 18:36:19 18:37:12 10° 33° (NNE) 18:38:04 437.025 FM, 437.400 FM
Sapphire 23 May 18:39:01 18:41:50 14° 257° (WSW) 18:44:39 437.095 MHz 1200 baud AX-25 AFSK
JAS-1B 23 May 18:55:19 19:03:11 36° 65° (ENE) 19:10:01 435.800 - 435.900 CW/SSB
SO-50 23 May 18:59:19 19:02:42 21° 249° (WSW) 19:06:03 436.795 FM
RS-15 23 May 19:09:55 19:20:46 39° 323° (NW) 19:31:15 29.354 - 29.394 USB, Beacon 29.352 USB
Hamsat 23 May 19:24:24 19:28:36 82° 77° (ENE) 19:32:52 145.90 MHz
SO-67 23 May 19:31:37 19:34:41 28° 71° (ENE) 19:37:46 435.3500 MHz FM
STRAND 1 23 May 19:55:20 20:00:29 76° 286° (WNW) 20:05:37 ?
UOSAT-12 23 May 20:13:53 20:18:25 54° 53° (NE) 20:22:55 437.025 FM, 437.400 FM
JAS-2 23 May 20:35:39 20:41:33 24° 59° (ENE) 20:47:25 435.800 - 435.900 CW/SSB, 435.910 FM
JAS-1B 23 May 20:44:25 20:53:27 56° 259° (W) 21:01:14 435.800 - 435.900 CW/SSB
HO-68 23 May 20:53:07 20:59:39 41° 64° (ENE) 21:06:12 435.675 MHz FM
SO-67 23 May 21:05:45 21:08:11 17° 267° (W) 21:10:36 435.3500 MHz FM
Oscar 11 23 May 21:25:37 21:29:14 26° 68° (ENE) 21:32:51 145.825 FM, Beacon 2401.500 USB
RS-15 23 May 21:29:22 21:37:41 22° 356° (N) 21:45:46 29.354 - 29.394 USB, Beacon 29.352 USB
STRAND 1 23 May 21:38:07 21:38:48 10° 303° (WNW) 21:39:30 ?
UOSAT-12 23 May 21:55:07 21:58:10 18° 250° (WSW) 22:01:13 437.025 FM, 437.400 FM
OPAL 23 May 22:17:17 22:22:21 56° 70° (ENE) 22:27:24 ?
JAS-2 23 May 22:17:57 22:25:42 81° 257° (WSW) 22:33:36 435.800 - 435.900 CW/SSB, 435.910 FM
KITSAT 1 23 May 22:22:28 22:29:27 34° 107° (ESE) 22:36:28 435.175 FM
AO-40 23 May 22:37:36 04:31:58 43° 175° (S) 10:45:44 Beacon 2401.320
HO-68 23 May 22:40:43 22:47:18 40° 262° (W) 22:53:57 435.675 MHz FM
Oscar 11 23 May 23:01:42 23:05:23 27° 264° (W) 23:09:06 145.825 FM, Beacon 2401.500 USB
RS-15 23 May 23:45:07 23:54:59 33° 32° (NNE) 00:04:31 29.354 - 29.394 USB, Beacon 29.352 USB
OPAL 23 May 23:58:01 00:01:33 18° 266° (W) 00:05:05 ?
JAS-2 24 May 00:07:23 00:11:44 16° 275° (W) 00:16:08 435.800 - 435.900 CW/SSB, 435.910 FM
KITSAT 1 24 May 00:16:32 00:24:27 57° 307° (NW) 00:32:26 435.175 FM
MaSat-1 24 May 01:08:20 01:14:18 30° 107° (ESE) 01:19:27 437.345 MHz
Uribyol 2 24 May 01:52:32 01:54:48 13° 89° (E) 01:57:04 436.500 FM
Oscar 19 24 May 01:52:47 01:55:40 15° 90° (E) 01:58:31 437.125 CW, 437.150 USB
RS-15 24 May 01:57:45 02:08:56 89° 239° (WSW) 02:19:50 29.354 - 29.394 USB, Beacon 29.352 USB
KITSAT 1 24 May 02:16:31 02:21:49 18° 332° (NNW) 02:27:09 435.175 FM
ISS 24 May 02:30:35 02:33:42 41° 138° (SE) 02:36:52 145.800 FM
Oscar 16 24 May 02:30:51 02:35:44 41° 98° (E) 02:40:34 437.025 USB, Beacon 2401.1428
AO-27 24 May 02:42:45 02:47:38 38° 98° (E) 02:52:29 436.795 MHz FM
ITAMSAT 1 24 May 02:49:01 02:54:00 43° 99° (E) 02:58:57 435.822 SSB
MaSat-1 24 May 02:49:36 02:56:21 51° 299° (WNW) 03:01:51 437.345 MHz
Uosat F 24 May 03:20:31 03:22:09 11° 89° (E) 03:23:47 435.120 FM
AO-Echo 24 May 03:24:17 03:28:30 31° 97° (E) 03:32:48 ?
Uribyol 2 24 May 03:29:37 03:34:52 78° 286° (WNW) 03:40:05 436.500 FM
Oscar 19 24 May 03:30:21 03:35:29 66° 287° (WNW) 03:40:34 437.125 CW, 437.150 USB
ISS 24 May 04:07:31 04:10:29 30° 336° (NNW) 04:13:29 145.800 FM
Oscar 16 24 May 04:10:41 04:14:52 25° 295° (WNW) 04:19:02 437.025 USB, Beacon 2401.1428
RS-15 24 May 04:12:08 04:19:36 22° 260° (W) 04:27:03 29.354 - 29.394 USB, Beacon 29.352 USB
KITSAT 1 24 May 04:18:59 04:21:21 11° 3° (N) 04:23:43 435.175 FM
AO-27 24 May 04:22:37 04:26:59 27° 294° (WNW) 04:31:20 436.795 MHz FM
ITAMSAT 1 24 May 04:29:04 04:33:15 25° 295° (WNW) 04:37:26 435.822 SSB
TMSAT-1 24 May 04:31:25 04:36:12 33° 96° (E) 04:40:57 436.925 FM
MaSat-1 24 May 04:38:52 04:39:24 10° 316° (NW) 04:39:55 437.345 MHz
Gurwin Techsat 1B 24 May 04:53:43 04:59:03 80° 103° (ESE) 05:04:22 435.225 FM
Uosat F 24 May 04:56:30 05:01:33 80° 285° (WNW) 05:06:35 435.120 FM
AO-Echo 24 May 05:03:11 05:07:14 28° 292° (WNW) 05:11:21 ?
Uribyol 2 24 May 05:12:17 05:13:28 11° 303° (WNW) 05:14:39 436.500 FM
STRAND 1 24 May 05:34:18 05:37:59 21° 63° (ENE) 05:41:40 ?
ISS 24 May 05:45:58 05:48:00 15° 356° (N) 05:50:03 145.800 FM
Saudisat 1A 24 May 05:46:46 05:51:16 63° 120° (ESE) 05:55:50 436.775 MHz
AO-7 24 May 06:01:43 06:10:00 60° 103° (ESE) 06:18:13 29.400 - 29.500 MHz
TMSAT-1 24 May 06:11:24 06:16:04 32° 293° (WNW) 06:20:42 436.925 FM
KITSAT 1 24 May 06:14:29 06:20:35 22° 33° (NNE) 06:26:39 435.175 FM
Gurwin Techsat 1B 24 May 06:35:32 06:38:21 15° 300° (WNW) 06:41:09 435.225 FM
Uosat F 24 May 06:38:35 06:39:31 11° 303° (WNW) 06:40:28 435.120 FM
PCSat 24 May 07:03:01 07:07:58 38° 111° (ESE) 07:12:58 145.825 MHz
STRAND 1 24 May 07:11:52 07:16:48 51° 260° (W) 07:21:47 ?
Hamsat 24 May 07:12:02 07:14:37 15° 91° (E) 07:17:11 145.90 MHz
ISS 24 May 07:23:04 07:25:39 20° 16° (NNE) 07:28:15 145.800 FM
Saudisat 1A 24 May 07:28:03 07:31:24 20° 318° (NW) 07:34:46 436.775 MHz
Sapphire 24 May 07:35:34 07:40:55 70° 116° (ESE) 07:46:19 437.095 MHz 1200 baud AX-25 AFSK
SO-50 24 May 07:35:45 07:38:13 14° 108° (ESE) 07:40:40 436.795 FM
AO-7 24 May 07:55:09 08:02:20 34° 302° (WNW) 08:09:31 29.400 - 29.500 MHz
KITSAT 1 24 May 08:09:18 08:17:28 74° 57° (ENE) 08:25:35 435.175 FM
JAS-1B 24 May 08:30:56 08:36:32 40° 97° (E) 08:41:48 435.800 - 435.900 CW/SSB
SO-67 24 May 08:31:12 08:34:31 35° 97° (E) 08:37:49 435.3500 MHz FM
PCSat 24 May 08:46:36 08:51:26 33° 310° (NW) 08:56:20 145.825 MHz
Hamsat 24 May 08:46:44 08:50:57 48° 287° (WNW) 08:55:10 145.90 MHz
ISS 24 May 08:59:24 09:02:46 83° 35° (NE) 09:06:08 145.800 FM
SO-50 24 May 09:13:30 09:18:18 71° 305° (NW) 09:23:02 436.795 FM
Sapphire 24 May 09:20:52 09:24:53 21° 316° (NW) 09:28:56 437.095 MHz 1200 baud AX-25 AFSK
JAS-2 24 May 09:31:12 09:34:37 14° 84° (E) 09:37:50 435.800 - 435.900 CW/SSB, 435.910 FM
SO-67 24 May 10:05:39 10:07:41 15° 293° (WNW) 10:09:42 435.3500 MHz FM
KITSAT 1 24 May 10:05:53 10:12:04 25° 256° (WSW) 10:18:14 435.175 FM
HO-68 24 May 10:07:35 10:14:14 40° 98° (E) 10:20:52 435.675 MHz FM
JAS-1B 24 May 10:22:04 10:27:02 27° 298° (WNW) 10:31:43 435.800 - 435.900 CW/SSB
UOSAT-12 24 May 10:27:44 10:30:13 15° 109° (ESE) 10:32:43 437.025 FM, 437.400 FM
OPAL 24 May 10:29:07 10:31:27 13° 92° (E) 10:33:45 ?
ISS 24 May 10:37:46 10:39:02 12° 231° (SW) 10:40:17 145.800 FM
Oscar 11 24 May 10:48:43 10:52:59 51° 100° (E) 10:57:14 145.825 FM, Beacon 2401.500 USB
SO-50 24 May 10:57:30 10:59:45 13° 324° (NW) 11:02:00 436.795 FM
JAS-2 24 May 11:13:51 11:20:46 86° 285° (WNW) 11:26:48 435.800 - 435.900 CW/SSB, 435.910 FM
MaSat-1 24 May 11:34:59 11:38:16 83° 64° (ENE) 11:40:58 437.345 MHz
HO-68 24 May 11:55:19 12:01:54 41° 296° (WNW) 12:08:28 435.675 MHz FM
UOSAT-12 24 May 12:05:24 12:09:51 62° 306° (NW) 12:14:23 437.025 FM, 437.400 FM
OPAL 24 May 12:05:52 12:10:52 71° 289° (WNW) 12:15:47 ?
Oscar 11 24 May 12:26:11 12:28:48 16° 296° (WNW) 12:31:24 145.825 FM, Beacon 2401.500 USB
PANSAT 24 May 12:33:07 12:34:26 11° 176° (S) 12:35:45 not established
Saudisat 1A 24 May 12:36:59 12:37:48 10° 32° (NNE) 12:38:37 436.775 MHz
JAS-2 24 May 13:00:44 13:04:37 16° 306° (NW) 13:08:17 435.800 - 435.900 CW/SSB, 435.910 FM
Oscar 19 24 May 13:09:35 13:13:38 24° 64° (ENE) 13:17:42 437.125 CW, 437.150 USB
Uribyol 2 24 May 13:10:10 13:13:59 21° 63° (ENE) 13:17:50 436.500 FM
Oscar 16 24 May 13:47:58 13:53:05 61° 72° (ENE) 13:58:13 437.025 USB, Beacon 2401.1428
UOSAT-12 24 May 13:49:28 13:50:58 11° 326° (NW) 13:52:29 437.025 FM, 437.400 FM
AO-27 24 May 14:01:10 14:06:15 59° 72° (ENE) 14:11:21 436.795 MHz FM
ITAMSAT 1 24 May 14:07:19 14:12:26 66° 73° (ENE) 14:17:35 435.822 SSB
Saudisat 1A 24 May 14:14:04 14:18:34 54° 53° (NE) 14:22:56 436.775 MHz
RS-15 24 May 14:18:00 14:21:25 12° 94° (E) 14:24:48 29.354 - 29.394 USB, Beacon 29.352 USB
Uosat F 24 May 14:33:29 14:36:48 18° 62° (ENE) 14:40:08 435.120 FM
AO-Echo 24 May 14:37:42 14:42:13 41° 71° (ENE) 14:46:40 ?
Gurwin Techsat 1B 24 May 14:37:43 14:41:04 17° 61° (ENE) 14:44:25 435.225 FM
Sapphire 24 May 14:42:07 14:44:09 12° 36° (NE) 14:46:11 437.095 MHz 1200 baud AX-25 AFSK
Oscar 19 24 May 14:47:45 14:52:42 45° 261° (W) 14:57:42 437.125 CW, 437.150 USB
Uribyol 2 24 May 14:48:06 14:53:06 50° 260° (W) 14:58:11 436.500 FM
AO-7 24 May 15:12:05 15:17:25 19° 49° (NE) 15:22:45 29.400 - 29.500 MHz
Oscar 16 24 May 15:29:37 15:32:51 17° 269° (W) 15:36:06 437.025 USB, Beacon 2401.1428
AO-27 24 May 15:42:53 15:46:10 17° 269° (W) 15:49:28 436.795 MHz FM
ITAMSAT 1 24 May 15:49:30 15:52:25 15° 270° (W) 15:55:20 435.822 SSB
PCSat 24 May 15:50:34 15:55:31 34° 51° (NE) 16:00:26 145.825 MHz
TMSAT-1 24 May 15:52:23 15:57:30 52° 71° (ENE) 16:02:39 436.925 FM
Saudisat 1A 24 May 15:54:54 15:57:49 17° 250° (WSW) 16:00:41 436.775 MHz
SO-50 24 May 16:06:04 16:09:03 17° 39° (NE) 16:12:00 436.795 FM

Developed and maintained by Chris Peat, Heavens-Above GmbH. Please read the updated FAQ before sending e-mail. Imprint. DLR
